Regional Weather Roundup
Issued by NWS Sterling, VA

Home | Current Version | Previous Version | Text Only | Print | Product List | Glossary On
Versions: 1 2 3 4 5 6 7 8 9 10 11 12 13 14 15 16 17 18 19 20 21 22 23 24 25 26 27 28 29 30 31 32 33 34 35 36 37 38 39 40 41 42 43 44 45 46 47 48 49 50
000
ASUS41 KLWX 231910
RWRLWX

REGIONAL WEATHER ROUNDUP
NATIONAL WEATHER SERVICE BALTIMORE MD/WASHINGTON DC
200 PM EST MON JAN 23 2017

Note: "FAIR" indicates few or no clouds below 12,000 feet
with no significant weather and/or obstructions to visibility.
 TC=TEMPERATURE CELSIUS

 * =Non NWS site. Station does not report precipitation (e.g. rain,
    snow, etc.), thunder, or fog.

DCZ001-MDZ009-015-VAZ040>042-051-053>054-232000-
WASHINGTON METRO

CITY           SKY/WX    TMP DP  RH WIND       PRES   REMARKS
WASHINGTON NAT HVY RAIN  43  41  93 NE14      29.47R FOG
DULLES         LGT RAIN  40  38  93 NE10      29.49R FOG
ANDREWS AFB    RAIN      41  39  93 NE17G28   29.42R FOG
FT BELVOIR     RAIN      43  39  87 VRB7      29.43F
QUANTICO       LGT RAIN  44  43  96 NE15      29.44R FOG
COLLEGE PARK*  CLOUDY    39  36  87 E9G18     29.50R
LEESBURG*      MIX PCPN  41  41 100 NE5       29.52R VSB 3/4
MANASSAS*      RAIN     N/A N/A N/A NE14G23   29.47F VSB 1
GAITHERSBURG*  CLOUDY    39  34  81 E7G21     29.49R

$$

MDZ006>007-011-014-232000-
BALTIMORE METRO

CITY           SKY/WX    TMP DP  RH WIND       PRES   REMARKS
BWI AIRPORT    HVY RAIN  40  39  97 NE25G38   29.44F FOG
MD SCIENCE CTR   N/A     41  36  82 MISG      29.47F
MARTIN STATE   RAIN      41  39  93 NE22G28   29.49R
ANNAPOLIS      RAIN      43  39  86 VRB7G23   29.46R FOG
FORT MEADE*    CLOUDY    37  37 100 NE13G23   29.48R

$$

MDZ012-015-019>023-232000-
MARYLAND EASTERN SHORE

CITY           SKY/WX    TMP DP  RH WIND       PRES   REMARKS
OCEAN CITY     CLOUDY    49  48  97 E20G30    29.33S FOG
SALISBURY      LGT RAIN  47  46  97 NE24G31   29.35F FOG
BAY BRIDGE AP* HVY RAIN  41  39  93 NE16G30   29.41F FOG
CAMBRIDGE*     CLOUDY    43  41  93 NE18G31   29.37F
EASTON*        RAIN      43  41  93 E26G38    29.42S VSB 3/4

$$

MDZ017>025-232000-
SOUTHERN MARYLAND

CITY           SKY/WX    TMP DP  RH WIND       PRES   REMARKS
PATUXENT RIVER CLOUDY    47  44  90 NE30G39   29.35F
ST INIGOES     CLOUDY    48  45  89 NE15G33   29.32F
LEONARDTOWN*   CLOUDY    45  43  93 NE10G23   29.38S

$$

MDZ003>005-232000-
NORTH CENTRAL MARYLAND

CITY           SKY/WX    TMP DP  RH WIND       PRES   REMARKS
FREDERICK*     RAIN      39  39 100 NE14G24   29.51S
HAGERSTOWN APT HVY RAIN  39  34  82 NE9G21    29.51R
WESTMINSTER*   RAIN      36  36 100 NE21G26   29.46S WCI  24

$$

MDZ501>502-232000-
WESTERN MARYLAND

CITY           SKY/WX    TMP DP  RH WIND       PRES   REMARKS
OAKLAND*       FOG       32  32 100 E10G21    29.42S VSB 1/4 WCI  24
CUMBERLAND*    CLOUDY    37  37 100 N5        29.57S

$$

VAZ025>031-232000-
SHENANDOAH VALLEY

CITY           SKY/WX    TMP DP  RH WIND       PRES   REMARKS
WINCHESTER*    HVY RAIN  36  34  93 NE6       29.51R
FRONT ROYAL*   CLOUDY    37  36  93 NE10      29.49R
LURAY*         RAIN      37  37 100 N14G20      N/A  WCI  29
NEW MARKET*    CLOUDY    37  35  92 N14       29.47R WCI  28
STAUNTON*      CLOUDY    40  37  91 N16G24    29.44S
WAYNESBORO*    CLOUDY    40  39  95 N9G22     29.40F

$$

WVZ021-048>050-054>055-232000-
EASTERN WEST VIRGINIA PANHANDLE

CITY           SKY/WX    TMP DP  RH WIND       PRES   REMARKS
MARTINSBURG    LGT RAIN  38  36  92 N16       29.50S FOG     WCI  29
PETERSBURG*    LGT SNOW  36  35  95 NW3       29.53R

$$

VAZ036>039-050-232000-
CENTRAL FOOTHILLS

CITY           SKY/WX    TMP DP  RH WIND       PRES   REMARKS
CHARLOTTESVILL CLOUDY    45  41  86 N17G30    29.39F
CULPEPER*      RAIN      43  42  95 N8        29.48R
ORANGE*        LGT RAIN  43  43 100 N21G28    29.42F
GORDONSVILLE*  CLOUDY    43  41  94 N16G29    29.38F
WARRENTON*     RAIN      43  39  87 N9G16     29.46R

$$

VAZ055>057-232000-
NORTH AND CENTRAL PIEDMONT

CITY           SKY/WX    TMP DP  RH WIND       PRES   REMARKS
FREDERICKSBRG* RAIN      45  45 100 N14G22    29.41R
STAFFORD*      RAIN      43  43 100 N8        29.47R

$$

NCZ024-NYZ072-PAZ021-071-VAZ022-071-232000-
OTHER REGIONAL OBSERVATIONS

CITY           SKY/WX    TMP DP  RH WIND       PRES   REMARKS
NEW YORK CITY  CLOUDY    40  31  70 E20G39    29.72F
PHILADELPHIA   LGT RAIN  39  36  89 NE24G43   29.55F FOG     WCI  28
PITTSBURGH     LGT RAIN  42  41  96 NE10      29.53R
ROANOKE        LGT RAIN  47  43  86 N7        29.35S
RICHMOND       LGT RAIN  50  49  96 N14G23    29.28F FOG
RALEIGH        CLOUDY    59  46  62 NW5       29.24F

$$

ANZ530>537-232000-
MARINE OBSERVATIONS

STATION/POSITION TIME  TEMP    WIND        PRES
                       AIR SEA DIR/SP/G
                 (UTC) (F)     (DEG/KT/KT) (MB)
THOMAS PT LIGHT  1900   42 40   50/ 22/ 26   N/A
BALT KEY BRIDGE  1842   40      50/ 18/ 22  997.9S
COVE POINT       1842   45      70/ 24/ 27  995.1R
LEWISETTA        1842   47 44   50/  8/ 15  992.4F
SOLOMONS ISLAND  1848      42   40/ 17/ 26   N/A
PINEY POINT      1848           70/ 18/ 23   N/A

$$




USA.gov is the U.S. government's official web portal to all federal, state and local government web resources and services.